Location: Caltech
(34.1382°N, 118.1253°W)
Time: 21:46:10
(UTC-07:00)

Tiros 1 despin weight - All Passes

Search period start: 21 October 2014 00:00
Search period end: 31 October 2014 00:00
Orbit: 601 x 652 km, 48.2° (Epoch: 20 October)

Date Brightness Start Highest point End Pass type
(mag) Time Alt. Az. Time Alt. Az. Time Alt. Az.
21 Oct - 08:35:45 10° SSW 08:40:15 51° SE 08:44:43 10° ENE daylight
21 Oct - 10:18:00 10° W 10:22:08 31° NNW 10:26:13 10° NE daylight
21 Oct - 12:02:30 10° NW 12:04:59 14° N 12:07:27 10° NNE daylight
21 Oct - 13:45:18 10° NNW 13:48:12 17° NNE 13:51:04 10° NE daylight
21 Oct - 15:26:25 10° NW 15:30:46 48° NNE 15:35:03 10° ESE daylight
21 Oct - 17:08:35 10° WNW 17:12:17 26° SW 17:15:57 10° S daylight
22 Oct - 07:15:10 10° SSE 07:18:05 17° SE 07:20:59 10° E daylight
22 Oct - 08:54:45 10° WSW 08:59:25 76° NW 09:04:01 10° NE daylight
22 Oct - 10:38:15 10° WNW 10:41:43 21° NNW 10:45:10 10° NNE daylight
22 Oct - 12:22:34 10° NNW 12:24:50 13° N 12:27:05 10° NNE daylight
22 Oct - 14:04:16 10° NNW 14:07:53 23° NNE 14:11:27 10° ENE daylight
22 Oct - 15:45:33 10° NW 15:50:02 83° SW 15:54:28 10° SE daylight
22 Oct - 17:29:59 10° WSW 17:31:09 11° SW 17:32:19 10° SW daylight
23 Oct - 07:32:44 10° SSW 07:37:01 36° SE 07:41:16 10° ENE daylight
23 Oct - 09:14:22 10° W 09:18:44 39° NNW 09:23:04 10° NE daylight
23 Oct - 10:58:40 10° NW 11:01:27 16° N 11:04:12 10° NNE daylight
23 Oct - 12:42:01 10° NNW 12:44:40 15° N 12:47:17 10° NE daylight
23 Oct - 14:23:12 10° NW 14:27:24 37° NNE 14:31:33 10° E daylight
23 Oct - 16:05:00 10° WNW 16:09:06 36° SW 16:13:10 10° SSE daylight
24 Oct - 06:13:26 10° SSE 06:14:55 11° SE 06:16:23 10° ESE visible
24 Oct - 07:51:25 10° SW 07:56:06 80° SE 08:00:44 10° NE daylight
24 Oct - 09:34:25 10° WNW 09:38:14 24° NNW 09:42:00 10° NNE daylight
24 Oct - 11:18:56 10° NNW 11:21:15 14° N 11:23:34 10° NNE daylight
24 Oct - 13:01:03 10° NNW 13:04:24 20° NNE 13:07:42 10° ENE daylight
24 Oct - 14:42:14 10° NW 14:46:44 72° NE 14:51:10 10° ESE daylight
24 Oct - 16:25:16 10° W 16:28:01 16° SW 16:30:45 10° SSW daylight
25 Oct - 06:29:53 10° S 06:33:47 26° SE 06:37:39 10° ENE visible
25 Oct - 08:10:46 10° WSW 08:15:20 51° NNW 08:19:50 10° NE daylight
25 Oct - 09:54:47 10° WNW 09:57:52 17° NNW 10:00:57 10° NNE daylight
25 Oct - 11:38:37 10° NNW 11:41:05 14° N 11:43:31 10° NE daylight
25 Oct - 13:19:58 10° NW 13:23:58 30° NNE 13:27:55 10° E daylight
25 Oct - 15:01:30 10° WNW 15:05:52 52° SW 15:10:10 10° SSE daylight
26 Oct - 06:48:10 10° SW 06:52:46 58° SE 06:57:20 10° ENE daylight
26 Oct - 08:30:37 10° W 08:34:43 30° NNW 08:38:47 10° NE daylight
26 Oct - 10:15:08 10° NW 10:17:38 14° N 10:20:07 10° NNE daylight
26 Oct - 11:57:46 10° NNW 12:00:50 17° NNE 12:03:52 10° ENE daylight
26 Oct - 13:38:55 10° NW 13:43:21 53° NNE 13:47:43 10° ESE daylight
26 Oct - 15:21:17 10° W 15:24:49 23° SW 15:28:19 10° S daylight
27 Oct - 05:27:15 10° S 05:30:31 19° SE 05:33:47 10° E visible
27 Oct - 07:07:13 10° WSW 07:11:54 69° NW 07:16:33 10° NE daylight
27 Oct - 08:50:51 10° WNW 08:54:17 20° NNW 08:57:41 10° NNE daylight
27 Oct - 10:35:04 10° NNW 10:37:26 14° N 10:39:48 10° NE daylight
27 Oct - 12:16:42 10° NNW 12:20:28 25° NNE 12:24:10 10° ENE daylight
27 Oct - 13:58:02 10° NW 14:02:33 74° SW 14:06:59 10° SE daylight
28 Oct - 05:45:01 10° SSW 05:49:26 41° SE 05:53:49 10° ENE visible
28 Oct - 07:26:51 10° W 07:31:13 37° NNW 07:35:31 10° NE daylight
28 Oct - 09:11:13 10° NW 09:13:59 15° N 09:16:43 10° NNE daylight
28 Oct - 10:54:24 10° NNW 10:57:13 16° N 11:00:00 10° NE daylight
28 Oct - 12:35:36 10° NW 12:39:54 41° NNE 12:44:09 10° ESE daylight
28 Oct - 14:17:31 10° WNW 14:21:33 33° SW 14:25:32 10° SSE daylight
29 Oct - 04:25:04 10° SSE 04:27:15 13° SE 04:29:26 10° E visible
29 Oct - 06:03:45 10° SW 06:08:29 88° SE 06:13:10 10° NE visible
29 Oct - 07:46:55 10° WNW 07:50:41 23° NNW 07:54:25 10° NNE daylight
29 Oct - 09:31:21 10° NNW 09:33:45 14° N 09:36:08 10° NNE daylight
29 Oct - 11:13:22 10° NNW 11:16:53 21° NNE 11:20:20 10° ENE daylight
29 Oct - 12:54:36 10° NW 12:59:10 80° NE 13:03:38 10° SE daylight
29 Oct - 14:37:58 10° W 14:40:23 14° SW 14:42:47 10° SSW daylight
30 Oct - 04:42:00 10° SSW 04:46:05 29° SE 04:50:09 10° ENE visible
30 Oct - 06:23:08 10° WSW 06:27:41 47° NNW 06:32:12 10° NE visible
30 Oct - 08:07:14 10° NW 08:10:18 17° NNW 08:13:21 10° NNE daylight
30 Oct - 09:50:54 10° NNW 09:53:32 15° N 09:56:07 10° NE daylight
30 Oct - 11:32:15 10° NW 11:36:23 32° NNE 11:40:27 10° E daylight
30 Oct - 13:13:52 10° WNW 13:18:13 46° SW 13:22:29 10° SSE daylight
